Location: Buisson
(44.2787°N, 4.9969°E)
Time: 02:14:30
(UTC+00:00)

FALCON 9 DEB - Pass Details

Date: 18 April 2021
Orbit: 364 x 381 km, 53.0° (Epoch: 15 May)

Event Time Altitude Azimuth Distance (km) Brightness Sun altitude
Exits shadow 03:39:25 - 301° (WNW) 1,552 5.6 -12.7°
Reaches altitude 10° 03:39:50 10° 301° (WNW) 1,381 5.4 -12.6°
Maximum altitude 03:42:54 71° 217° (SW) 401 2.7 -12.1°
Drops below altitude 10° 03:45:59 10° 133° (SE) 1,385 5.9 -11.7°
Sets 03:48:02 0° 131° (SE) 2,237 7.0 -11.3°
